Tracking 29892 objects as of 21-Nov-2024
HD Live streaming from Space Station
objects crossing your sky now

SL-16 DEB

Track SL-16 DEB now!
10-day predictions


NORAD ID: 39865
Int'l Code: 1992-093LT
Perigee: 775.1 km
Apogee: 781.8 km
Inclination: 71.0 °
Period: 100.3 minutes
Semi major axis: 7149 km
RCS: 0.0089 m2 (small)
Launch date: December 25, 1992
Source: Commonwealth of Independent States (former USSR) (CIS)
Launch site: TYURATAM MISSILE AND SPACE COMPLEX (TTMTR)

Note: This is SATELLITE DEBRIS
Your satellite tracking list
Your tracking list is empty




NASA's NSSDC Master Catalog

Two Line Element Set (TLE):
1 39865U 92093LT  24324.44689073  .00002806  00000-0  97914-3 0  9999
2 39865  71.0152 230.3353 0004703 188.8414 171.2638 14.36139723546615
Source of the keplerian elements: AFSPC